Wind_Speed
12 13 14 15 15 16 17 17 18 18 18 18 17 17 16 16 16 16 16 15 14 14 13 13 13 13 13 13 13 13 12 12 11 11 10 11 11 12 12 13 13 13 13 14 15 15 16 16 17 17 18 18 19 18 18 18 18 18 19 20 20 21 22 23 24 26 27 28 29 29 30 31 32 32
11 12 13 13 14 14 14 15 15 15 16 16 16 15 15 15 15 15 14 14 14 14 14 14 14 14 14 14 14 14 14 13 13 12 12 12 12 12 12 13 13 13 13 14 14 15 16 16 16 16 17 17 18 18 18 18 18 18 18 18 18 18 19 20 22 24 26 27 28 30 32 33 33 32
11 12 12 13 13 13 13 13 13 13 14 14 15 15 15 15 15 15 15 15 15 15 15 15 15 15 15 15 15 15 15 15 15 14 14 14 13 13 13 14 14 15 15 15 16 16 16 17 17 17 18 18 19 19 19 19 19 19 19 19 19 19 19 20 21 22 23 26 28 29 31 33 34 34
12 12 12 13 13 13 13 13 13 13 14 15 15 16 16 16 16 16 16 16 16 16 16 16 16 17 17 17 17 17 17 17 17 16 16 16 16 15 15 15 15 16 17 17 18 18 19 19 19 20 20 20 20 21 21 21 21 21 21 21 21 22 22 22 22 22 23 24 25 25 26 28 31 33
14 14 13 13 14 14 15 15 15 16 16 16 17 17 17 17 17 16 16 16 16 17 17 17 17 18 18 18 18 18 18 18 18 18 18 18 18 17 17 17 17 17 18 18 19 20 21 21 22 22 22 23 23 23 23 23 23 23 23 23 23 23 24 24 24 24 25 25 25 25 24 24 25 27
15 15 15 15 15 16 16 16 17 17 18 18 18 18 17 17 17 17 17 17 17 17 17 17 18 18 18 18 18 19 19 19 20 20 20 20 20 20 19 19 20 20 20 20 21 21 22 23 23 24 24 25 25 25 25 25 26 26 26 26 25 25 25 26 26 26 26 27 26 26 26 26 25 25
16 16 17 17 17 18 18 18 19 19 19 19 18 18 18 18 18 18 18 17 18 17 17 18 18 18 19 19 19 20 20 21 21 21 21 22 22 22 22 21 21 23 24 23 24 24 25 25 25 26 26 27 27 27 27 28 28 28 28 28 28 27 27 27 27 27 27 28 28 28 27 27 27 27
18 18 18 18 19 19 19 19 20 20 20 20 20 19 19 19 19 19 19 19 19 18 19 19 19 19 20 20 21 21 22 22 22 23 23 23 23 23 24 24 23 24 26 26 26 27 28 28 28 28 28 28 29 29 29 29 29 29 29 29 29 29 29 28 28 28 28 28 28 29 29 29 29 29
21 21 21 21 21 21 21 21 21 22 22 22 22 22 21 21 21 21 21 21 20 20 20 20 20 21 21 22 23 23 24 24 24 24 25 25 25 24 25 26 25 25 26 28 29 29 30 30 31 31 31 30 31 31 31 31 31 31 31 31 31 31 31 30 30 30 30 30 30 30 31 31 31 31
24 24 24 24 24 24 24 25 24 24 24 24 24 24 24 24 24 24 24 23 23 23 22 21 21 22 23 24 25 25 26 27 27 27 28 28 28 27 28 29 28 28 28 29 30 31 31 32 33 33 34 33 33 34 33 33 33 33 33 33 33 33 33 33 33 33 33 33 33 33 33 34 34 34
27 27 26 26 27 27 28 28 28 27 27 26 27 27 26 26 25 25 25 25 25 25 25 25 24 24 25 26 28 28 29 31 32 32 31 32 33 33 33 33 34 33 33 34 35 34 34 34 35 35 36 36 36 37 37 37 37 37 38 38 38 39 39 39 39 39 39 39 39 39 39 39 39 38
30 29 28 28 29 29 30 30 30 30 29 29 29 29 28 27 27 27 27 27 27 27 28 28 28 29 29 30 31 32 32 33 35 36 36 36 37 37 38 38 39 39 38 38 39 39 38 37 38 38 38 38 38 39 40 40 40 41 42 42 42 43 44 45 46 46 47 47 47 47 47 46 45 44
31 31 31 31 32 31 32 32 31 31 31 31 31 30 30 30 30 30 29 30 31 31 32 32 32 33 34 35 35 36 36 37 38 39 40 40 40 41 42 43 44 45 43 42 42 44 43 42 42 43 44 44 44 44 45 45 46 47 48 48 49 49 50 50 51 52 53 53 53 53 53 52 51 50
30 31 32 32 33 33 33 33 33 33 33 34 33 32 32 32 32 31 31 32 33 34 34 35 35 36 36 38 39 39 40 40 40 42 43 44 44 45 46 47 49 50 50 48 47 49 50 49 48 48 49 49 50 50 51 52 53 55 56 56 56 56 56 56 57 57 57 58 58 58 58 57 56 55
29 30 32 32 32 31 31 31 34 35 36 36 35 34 34 34 33 33 33 33 34 35 36 37 38 38 38 39 40 41 41 41 42 43 44 45 46 46 47 48 49 51 52 51 50 50 52 53 52 51 51 52 52 52 53 54 55 57 58 58 58 58 58 58 59 59 59 60 60 60 60 60 60 60
29 30 33 33 33 32 31 31 34 36 37 37 37 36 35 35 36 36 36 37 37 38 38 39 40 40 40 42 43 43 43 44 44 44 45 46 47 47 48 48 49 51 52 51 50 50 51 53 54 53 53 54 54 54 54 55 55 56 57 58 58 58 58 58 58 59 59 59 60 61 61 62 62 62
31 32 34 37 37 36 35 36 37 37 37 37 37 37 37 37 38 38 39 39 39 40 40 40 42 43 43 44 45 45 44 45 46 46 46 47 48 49 49 50 50 51 52 53 52 52 52 54 55 56 56 56 57 57 57 57 57 57 58 59 59 59 59 59 59 60 60 60 60 60 61 61 62 63
34 35 37 39 39 37 36 37 37 36 35 36 37 38 38 39 39 39 39 39 40 41 42 43 44 44 43 43 44 44 44 44 45 46 46 47 48 48 49 50 51 52 53 54 54 53 54 55 57 58 58 59 59 60 60 60 60 60 60 60 61 61 61 61 61 61 61 61 62 62 62 62 62 62
37 38 39 39 39 38 39 40 38 37 38 40 40 39 39 39 40 41 41 42 43 44 45 45 44 43 42 42 42 43 43 44 45 46 47 48 49 49 50 51 52 53 54 56 56 56 56 56 58 58 59 60 60 61 62 62 63 62 62 62 62 62 63 63 63 62 62 62 63 63 63 64 63 63
39 39 39 40 41 41 42 45 45 44 45 44 42 40 40 41 43 43 44 44 45 46 46 45 45 45 45 45 45 46 48 48 49 50 50 51 52 52 52 53 54 55 56 58 59 58 57 58 59 59 60 60 60 61 62 63 63 63 63 63 64 64 64 65 65 65 65 65 66 66 66 66 66 66
42 41 40 42 43 44 45 48 49 49 47 44 42 42 43 44 45 44 44 45 45 46 46 46 47 47 47 48 49 50 51 52 52 53 53 53 53 54 54 55 55 56 57 58 59 59 59 59 60 60 60 60 61 61 62 62 63 63 63 63 64 65 66 67 67 67 67 67 67 67 67 67 67 67
44 42 43 45 45 44 44 46 47 46 44 41 41 42 44 45 44 43 44 45 46 46 47 48 48 49 50 51 51 52 52 53 53 53 53 53 54 54 55 55 56 56 57 58 59 59 59 60 61 61 60 60 61 62 62 62 63 63 63 63 64 64 65 65 66 66 66 65 65 65 64 63 64 64
45 44 45 47 47 46 45 46 47 46 44 43 43 45 46 47 47 45 46 47 48 48 48 49 50 50 51 51 52 52 52 52 53 53 54 54 55 55 56 56 57 57 58 59 60 60 60 60 61 62 62 62 62 62 62 62 63 64 64 64 64 64 64 63 63 62 62 61 61 61 61 60 60 60
44 45 46 48 49 49 50 50 50 50 49 49 48 48 49 49 49 48 48 49 50 50 50 50 50 50 50 51 52 52 52 52 52 53 54 55 55 56 56 57 57 58 59 60 60 60 61 62 62 63 64 64 63 62 62 62 63 64 65 65 65 64 64 62 61 60 59 59 59 60 60 59 58 57
47 48 48 49 50 50 51 52 52 53 53 52 51 50 50 50 50 51 50 49 49 50 50 50 49 50 51 52 53 53 53 53 53 53 54 54 55 55 56 57 57 57 59 60 61 61 62 63 63 63 64 63 63 62 62 62 63 64 64 63 63 62 62 61 61 60 60 59 59 59 60 61 60 58
49 50 51 51 50 50 51 51 52 53 54 53 51 50 49 49 50 50 50 49 49 49 49 49 50 52 54 54 54 54 55 55 55 55 55 55 55 56 56 57 58 58 59 60 61 62 62 63 63 62 61 61 60 60 61 61 61 61 61 61 61 61 61 62 62 61 61 61 61 60 61 62 62 61
49 50 51 51 50 49 48 48 49 50 50 50 48 48 48 48 49 49 49 49 49 49 49 50 53 55 55 55 56 56 56 56 56 56 56 56 56 57 57 58 59 59 60 61 61 62 62 61 60 60 59 59 59 59 58 58 58 58 59 59 60 61 61 61 61 61 61 61 61 61 61 62 62 62
50 51 50 48 47 47 47 47 48 47 47 46 45 45 46 47 48 49 49 50 49 49 51 53 56 57 57 57 57 57 57 57 56 57 57 57 58 58 58 58 58 59 59 59 59 59 58 58 57 57 58 58 57 57 56 56 57 57 58 58 58 58 58 57 57 57 57 57 57 57 58 59 60 61
51 50 48 47 47 47 47 48 47 46 45 45 45 46 47 48 48 48 49 49 50 51 53 56 58 59 59 59 59 58 58 57 57 58 58 58 58 58 58 57 57 56 56 56 55 55 55 55 55 55 55 55 55 55 55 54 54 54 54 52 51 51 50 50 49 49 49 49 49 50 51 52 54 56
50 48 47 48 49 48 47 48 48 47 47 47 47 47 48 48 48 48 49 50 52 54 56 59 60 61 61 60 60 59 59 58 58 58 58 57 57 56 55 54 53 53 53 53 53 53 53 53 53 53 53 53 53 52 51 49 48 47 46 45 44 43 43 42 42 43 44 43 43 43 43 45 46 48
49 48 49 50 51 49 48 49 50 49 49 48 48 48 48 49 50 51 51 53 55 56 59 62 64 63 62 62 61 60 59 59 58 57 56 54 53 51 50 50 49 50 51 52 52 52 51 51 51 52 51 50 48 46 44 42 41 40 40 40 40 40 40 40 41 41 42 42 41 40 40 40 40 41
50 49 50 52 52 52 51 50 50 48 48 49 50 51 52 52 52 53 53 55 57 59 62 65 65 64 63 62 60 59 58 56 54 52 50 49 48 48 47 48 48 48 49 49 49 49 50 50 50 49 46 43 41 39 38 38 37 37 37 37 38 39 40 40 40 40 41 41 41 40 39 39 38 37
54 53 53 53 54 53 52 51 49 48 49 51 52 53 53 52 52 53 54 57 60 63 65 65 64 62 61 60 58 55 52 49 47 46 45 45 45 45 46 46 47 47 47 47 49 50 49 47 44 40 38 36 36 35 35 35 35 36 37 38 39 39 39 38 38 37 37 38 39 39 39 39 38 37
56 56 55 54 54 54 52 51 51 51 51 51 50 49 50 51 52 54 57 61 64 65 64 62 60 58 56 53 50 46 43 42 41 41 42 43 43 44 45 45 45 46 47 49 49 47 43 38 35 34 33 33 33 34 34 34 35 38 40 40 40 39 38 37 36 35 35 35 35 36 36 37 37 37
50 51 51 52 53 53 51 50 50 50 49 48 48 49 51 52 54 58 62 64 64 62 59 57 54 51 47 43 40 38 37 37 38 39 40 41 41 42 43 44 45 47 48 46 42 37 34 31 30 30 30 31 32 34 36 36 37 39 39 38 38 38 37 35 35 34 34 33 32 32 32 33 33 34
45 45 45 46 47 48 48 48 47 47 47 48 49 50 52 54 58 61 63 61 58 54 51 48 45 41 38 35 34 34 35 35 35 36 37 39 40 42 44 46 47 46 42 37 33 30 28 28 28 28 29 30 31 34 36 37 38 37 36 35 35 36 36 34 33 33 32 31 30 29 29 29 29 30
39 40 41 42 43 45 46 46 45 44 45 46 48 51 55 57 59 58 55 52 48 45 42 39 36 33 32 32 32 32 31 31 32 34 37 39 41 43 45 45 42 36 31 28 27 26 25 25 26 27 28 29 31 32 33 35 36 36 35 34 34 35 34 32 31 31 30 29 28 27 27 26 26 26
36 37 38 38 39 40 41 42 42 43 44 47 51 54 55 53 49 47 45 42 40 37 34 32 30 29 30 30 29 27 27 29 31 34 37 39 42 44 42 37 31 27 25 24 24 23 23 23 24 25 26 28 29 30 31 32 33 34 33 32 31 31 30 30 30 29 28 27 26 25 25 24 24 24
38 38 38 38 38 39 40 41 43 44 47 52 54 52 47 44 41 40 38 36 34 31 29 28 28 28 28 26 24 23 25 28 31 34 36 39 41 39 34 28 24 22 21 22 21 21 21 21 22 23 25 26 27 28 29 30 31 31 31 30 29 27 27 28 28 26 25 23 23 22 22 21 21 21
40 40 41 42 42 43 45 46 48 50 52 53 50 45 40 39 38 36 33 31 29 28 26 26 27 26 24 21 20 22 25 27 29 32 36 38 37 32 26 22 20 19 19 19 19 19 20 20 20 21 23 24 26 27 28 29 29 29 28 27 27 26 26 27 26 22 20 19 19 20 19 19 18 17
44 44 44 45 46 47 49 52 53 52 49 46 42 39 38 37 35 32 30 28 26 26 26 26 25 22 19 18 20 22 24 26 28 30 34 35 32 26 21 19 18 17 17 17 17 18 19 19 19 20 22 24 26 28 29 29 30 29 27 26 26 26 26 25 22 18 16 16 18 18 17 15 14 13
49 49 50 51 52 52 52 52 50 44 40 38 38 37 35 34 32 29 27 26 25 25 25 23 21 18 17 17 19 21 22 24 26 28 31 32 29 24 20 18 16 15 15 15 15 17 18 19 19 21 23 25 27 29 30 30 29 28 26 25 25 26 25 21 17 14 14 14 14 13 10 9 8 8
47 47 48 48 47 46 45 42 37 33 32 35 36 35 33 31 29 27 26 25 25 24 23 20 17 16 16 17 18 20 21 22 24 25 27 28 27 22 18 17 15 14 13 13 14 15 17 19 20 22 23 25 28 30 31 31 29 27 26 25 26 26 22 16 12 11 11 10 7 5 5 5 6 6
45 43 42 40 39 39 37 33 28 27 29 32 34 33 31 30 28 26 26 25 24 22 20 18 16 16 16 17 18 19 19 21 22 23 24 26 26 23 18 16 14 13 12 12 14 15 17 19 21 22 24 26 27 29 30 30 28 27 27 27 27 25 17 10 8 8 7 4 2 2 3 5 6 7
43 43 41 40 38 37 35 33 30 28 30 31 32 32 30 29 27 26 25 24 22 20 18 17 16 16 16 17 18 18 18 19 21 22 22 23 24 23 19 16 14 14 13 14 15 17 18 20 22 23 24 25 26 28 29 29 28 27 27 27 25 19 10 6 7 7 5 2 1 2 3 6 8 9
Wind_Direction
303 302 299 295 291 287 282 279 277 276 275 275 274 273 271 269 269 270 270 270 271 272 274 275 276 278 280 282 285 287 289 291 292 292 291 290 289 288 288 289 288 286 285 282 281 281 281 280 279 278 277 276 277 278 279 279 277 276 277 277 275 273 270 268 267 266 266 263 261 259 258 259 259 258
302 302 301 298 295 291 286 283 281 279 278 277 275 272 269 266 264 263 262 262 263 264 267 269 271 274 275 278 281 283 286 287 288 288 287 286 286 285 285 286 286 286 284 283 282 280 279 280 279 278 278 278 279 280 280 281 282 280 280 279 278 276 272 269 267 266 266 264 263 260 256 256 257 258
298 299 298 296 293 290 287 285 281 279 275 272 269 266 263 262 260 260 260 260 261 263 265 267 269 270 273 275 277 279 280 281 282 282 282 281 281 281 281 281 282 283 283 283 282 282 280 279 279 278 277 277 278 278 279 279 280 280 281 281 281 280 279 277 274 272 269 267 265 262 258 257 257 258
296 295 293 290 287 283 280 275 271 267 264 261 260 259 259 259 260 262 264 265 267 267 267 269 270 271 272 274 275 276 277 277 278 279 280 281 281 281 280 280 280 280 282 283 283 283 283 282 281 280 279 278 278 278 279 279 279 279 279 279 280 280 281 282 282 282 280 277 274 269 264 260 258 257
292 289 286 282 279 275 272 269 265 261 258 256 255 255 256 257 259 262 265 266 267 268 270 271 272 273 274 275 276 277 278 279 279 279 280 280 281 281 282 282 282 280 280 281 282 282 283 283 284 283 282 281 281 280 280 280 280 280 279 279 278 278 279 280 281 282 283 283 283 281 278 274 268 263
286 285 282 279 275 271 268 265 262 260 258 256 255 256 257 259 261 262 264 265 267 269 271 272 274 275 276 276 277 278 279 279 280 280 280 280 280 280 280 281 283 283 283 282 282 282 282 283 284 284 285 285 284 284 283 283 282 281 280 280 279 278 278 278 279 280 281 282 283 283 282 281 279 276
281 281 280 279 277 273 269 265 262 260 258 256 257 258 259 261 262 263 264 266 267 269 272 273 275 277 277 278 278 278 279 279 279 278 278 278 279 279 280 280 280 283 284 284 284 284 283 283 283 284 285 285 285 285 285 285 284 283 282 281 280 280 279 279 279 279 279 280 281 282 282 280 279 278
276 276 275 273 272 270 268 265 263 260 259 258 258 259 260 262 263 264 265 267 268 269 271 272 272 273 274 275 276 277 277 277 278 278 277 276 276 276 277 278 278 279 281 283 284 284 284 284 283 283 283 283 284 284 284 284 284 283 282 281 281 281 280 279 279 279 280 280 280 281 281 281 280 278
273 274 273 272 270 268 265 263 261 260 259 258 258 258 260 262 264 266 267 269 271 271 271 272 272 271 270 272 273 275 277 277 277 276 276 276 275 274 274 275 276 275 277 280 281 282 283 283 283 282 282 281 281 281 281 282 282 282 281 280 280 280 280 280 280 280 281 281 281 281 281 282 282 281
272 272 273 273 272 271 269 266 264 263 262 261 260 261 262 263 265 268 269 271 272 273 274 274 275 276 276 277 278 278 278 279 278 277 276 277 277 276 274 274 274 275 276 278 278 279 279 280 280 280 280 279 278 278 277 277 278 278 279 279 279 279 279 279 280 280 280 281 281 281 281 281 281 281
269 269 271 273 273 273 272 271 269 268 265 263 263 263 265 266 268 269 271 271 272 273 276 277 279 281 282 283 284 284 282 281 281 280 279 279 280 279 278 276 276 277 278 278 278 278 277 277 276 276 276 276 275 275 275 274 274 274 275 276 277 278 278 278 279 279 278 279 279 280 280 280 280 280
268 268 269 270 272 272 272 272 271 269 266 264 263 264 264 266 268 269 270 272 273 274 276 279 281 282 282 282 283 284 284 283 282 282 281 280 280 281 281 280 280 279 279 279 279 278 277 276 275 275 274 273 273 272 272 272 272 271 272 273 274 275 276 277 278 278 278 278 279 279 279 279 278 278
268 267 268 268 269 270 270 270 268 267 266 266 265 264 264 265 267 269 270 272 274 275 277 279 280 281 282 282 283 284 284 283 282 282 282 282 282 282 283 283 283 282 280 279 279 279 278 277 276 275 275 273 272 272 271 271 272 272 273 273 273 273 273 274 274 275 276 277 277 278 278 277 277 276
271 267 267 267 267 268 268 268 266 265 265 266 266 266 265 266 267 269 271 273 274 276 278 280 281 282 282 283 284 284 284 283 283 282 282 282 282 282 283 283 283 283 283 281 280 280 280 280 279 278 277 276 274 273 272 272 273 274 275 275 275 275 274 274 274 273 273 274 274 274 274 274 274 274
276 270 265 264 266 267 267 267 265 263 262 263 264 265 265 267 268 269 271 273 274 277 279 281 282 282 282 283 283 283 283 283 282 282 282 282 282 283 283 283 283 283 283 283 282 281 282 282 282 281 280 279 278 277 276 275 275 275 275 276 276 276 276 276 275 275 274 274 273 273 272 272 272 272
277 272 264 263 265 266 268 269 266 264 261 260 261 263 264 267 269 270 272 274 276 278 280 281 282 283 283 283 284 283 283 282 281 281 281 282 283 283 284 284 283 283 283 283 283 283 283 283 283 283 283 282 282 281 280 279 279 278 278 277 277 276 276 276 276 276 276 275 274 273 273 272 271 271
271 271 265 261 260 263 268 268 264 261 260 259 260 262 265 267 269 271 274 276 279 280 281 282 283 284 285 285 285 284 283 283 283 283 283 282 282 283 283 283 283 283 283 283 283 283 284 284 284 284 284 284 284 283 283 282 282 282 281 281 280 279 278 277 277 276 275 275 274 274 273 272 272 271
265 268 267 262 258 262 267 265 260 259 261 263 264 266 267 269 269 270 273 275 278 279 281 282 282 282 282 283 283 284 284 284 285 285 285 284 284 283 283 284 284 284 284 284 283 283 284 284 284 284 284 284 284 284 283 283 283 283 283 282 282 281 280 279 277 276 275 275 274 273 272 272 271 271
264 265 267 264 258 259 263 262 261 267 273 273 272 270 270 270 272 274 276 278 279 280 280 281 281 280 280 282 283 285 286 286 287 287 287 287 286 286 286 286 286 286 286 285 285 284 284 284 284 284 284 284 284 284 284 284 283 283 283 283 282 282 281 280 279 278 277 275 274 273 272 271 271 270
265 263 265 264 258 256 259 262 266 274 277 275 271 270 271 273 276 279 280 280 280 280 279 279 279 279 280 282 285 287 289 290 290 290 289 289 288 287 287 286 286 286 286 286 285 285 284 284 284 284 284 284 284 284 284 284 283 283 283 283 283 282 282 282 281 281 280 278 276 275 273 271 270 269
264 262 262 263 259 255 257 262 268 273 273 270 268 271 274 276 278 279 279 278 278 278 279 279 279 280 281 283 286 288 290 291 291 290 290 289 288 288 287 287 286 286 286 286 285 285 285 285 284 284 284 284 284 284 284 284 284 284 284 285 285 284 284 284 284 283 282 281 280 278 276 274 272 269
265 261 259 261 260 256 256 261 266 268 267 268 271 275 277 278 279 279 279 279 279 280 280 280 281 281 283 285 287 289 291 291 291 290 290 289 289 289 289 288 288 288 288 287 287 287 287 286 286 286 285 285 285 285 285 285 285 285 285 285 285 285 285 285 285 284 283 282 280 279 277 276 274 272
264 260 257 258 260 260 261 264 266 267 269 273 276 278 279 280 281 281 280 281 282 282 281 281 282 284 285 287 289 291 292 292 292 292 292 291 291 291 291 290 290 290 289 289 288 288 287 287 287 286 285 285 285 286 286 286 286 286 286 285 285 285 284 283 282 281 281 280 279 278 276 274 273 272
261 259 259 260 261 263 265 267 268 270 273 276 278 279 280 280 281 280 280 281 281 281 281 282 283 285 287 289 291 291 291 291 291 291 292 292 292 292 291 291 291 290 290 289 288 288 287 287 286 286 286 285 285 286 287 287 287 287 286 286 285 284 283 281 279 278 277 276 276 276 275 274 272 270
261 262 263 263 263 264 265 267 268 271 274 277 279 279 279 279 280 280 280 280 279 279 280 282 283 286 289 291 291 291 291 291 290 290 290 290 290 290 289 289 289 288 288 287 287 287 286 286 286 285 286 286 287 287 287 288 287 287 286 285 284 283 282 280 279 277 276 275 274 273 273 273 272 270
262 263 263 264 264 264 264 266 268 270 273 275 276 277 277 278 279 280 280 280 279 280 281 282 285 290 293 293 293 292 292 292 292 291 291 290 290 289 289 288 288 287 287 287 287 286 286 286 286 287 287 288 288 288 288 288 287 286 285 284 283 282 281 280 279 278 277 275 274 272 272 271 271 270
262 262 263 263 264 264 265 267 269 270 271 272 273 274 275 277 278 279 280 280 280 280 281 284 289 292 294 293 293 292 292 292 292 292 291 291 290 289 288 288 288 288 287 287 287 287 287 288 289 289 290 290 290 290 289 288 287 286 285 284 283 283 282 281 280 279 278 276 275 273 271 270 269 268
261 261 261 261 263 266 268 270 271 271 271 271 271 272 274 277 278 279 279 279 279 280 282 287 291 293 293 293 293 292 292 292 291 291 290 290 289 288 288 288 288 288 288 289 289 290 290 291 292 293 293 292 292 291 290 289 288 287 286 285 285 285 284 283 282 281 279 278 276 274 272 270 268 267
260 259 260 261 263 267 270 271 271 270 269 270 271 273 276 277 278 278 279 279 279 281 284 288 292 293 293 293 292 292 291 291 290 289 288 288 288 288 288 288 288 289 289 290 290 291 292 293 294 294 294 293 293 292 291 290 289 289 288 288 287 287 287 286 285 283 282 280 278 277 274 271 269 267
258 259 260 261 263 265 267 269 269 268 268 270 273 275 276 276 276 277 279 279 281 283 286 290 293 294 293 292 292 291 290 289 287 287 287 287 288 289 289 289 290 291 291 291 292 293 294 294 295 295 295 294 294 293 292 291 290 290 290 290 289 289 288 288 287 286 285 283 281 279 277 274 272 269
255 257 258 259 260 263 266 267 267 268 269 271 273 275 276 276 276 277 279 281 282 285 287 290 292 292 291 291 290 289 287 287 287 287 288 289 289 290 290 290 291 291 292 293 294 295 295 296 297 297 296 296 295 294 293 292 291 291 291 291 291 291 290 289 288 286 285 284 282 280 278 277 275 273
253 255 258 259 259 262 265 266 267 268 270 272 273 272 272 272 273 275 279 281 283 286 288 290 290 290 289 288 287 287 287 288 289 289 289 290 290 290 291 291 291 292 293 295 296 297 298 298 298 297 296 295 294 293 293 293 292 292 292 292 293 292 290 288 286 284 283 282 282 280 279 278 276 275
255 257 259 259 259 260 263 265 267 269 270 270 269 268 267 269 272 276 279 282 284 286 288 288 288 287 287 286 287 288 289 290 290 290 290 290 290 291 292 293 293 295 296 297 298 299 298 297 296 295 294 294 293 293 293 293 294 294 294 294 294 293 290 287 285 283 281 281 280 280 278 277 275 274
256 257 258 257 256 258 262 265 267 267 266 265 265 267 270 273 276 278 281 284 286 287 288 287 286 286 286 287 289 290 289 289 289 290 291 291 292 293 294 296 297 298 299 299 299 297 296 294 294 293 293 294 294 294 294 295 295 295 296 296 295 293 291 288 286 285 284 283 282 280 279 277 274 273
253 254 254 254 255 257 260 263 263 261 261 263 266 270 273 276 279 282 284 286 287 287 286 286 287 288 289 289 289 288 288 289 290 292 293 294 295 297 298 298 299 300 299 298 295 293 292 292 293 293 294 295 296 296 296 297 297 296 297 298 297 294 293 292 290 289 288 286 284 282 280 279 276 273
253 253 254 254 254 255 257 258 258 259 262 267 269 272 275 279 283 285 286 286 286 286 286 287 289 290 289 287 287 288 290 291 292 294 296 297 299 299 300 300 300 299 297 294 291 290 291 293 294 295 296 297 297 297 298 300 300 300 300 301 299 297 296 296 295 294 292 289 285 282 281 280 278 274
253 252 252 252 253 255 256 258 260 263 267 270 273 277 281 284 285 284 284 284 285 287 288 289 288 286 286 286 288 290 291 293 295 297 298 300 301 301 302 301 299 296 292 289 288 290 292 294 295 297 299 300 302 302 304 305 304 304 303 303 301 300 300 300 299 298 296 292 287 284 282 281 279 276
249 249 250 253 256 257 259 261 263 267 270 274 280 284 285 285 283 282 282 284 286 287 287 287 285 285 287 288 289 290 292 295 298 300 301 303 304 304 303 300 296 292 289 288 289 291 293 296 299 303 306 308 308 309 310 309 308 308 307 305 302 302 302 303 304 302 298 294 289 286 285 283 280 278
245 247 250 252 255 258 261 264 267 270 276 281 284 284 282 282 282 283 284 285 285 285 284 283 284 286 288 287 287 290 294 298 301 303 305 307 307 306 303 297 292 290 289 289 291 293 297 302 307 311 313 315 315 316 316 314 313 312 311 308 306 306 306 307 307 304 299 294 291 289 287 285 283 281
247 251 253 256 258 261 264 268 272 276 280 281 280 278 278 282 284 284 284 283 283 282 281 282 284 285 284 283 287 293 298 302 305 307 310 312 311 306 299 293 290 289 289 291 294 298 304 310 313 316 318 321 323 324 323 322 319 317 314 311 310 310 310 310 307 300 295 292 292 291 290 287 285 283
257 260 262 264 266 267 269 272 274 276 276 275 273 274 278 281 282 282 281 281 279 279 280 282 282 280 277 281 290 297 301 305 308 312 316 318 315 306 296 291 289 289 290 294 298 304 310 312 313 317 322 327 329 330 330 328 324 319 314 312 312 313 313 310 302 293 290 294 295 293 292 289 287 285
263 265 267 268 268 268 269 270 270 268 267 268 271 274 277 279 278 278 278 277 276 278 280 279 274 270 273 283 293 299 303 307 311 315 320 323 319 308 296 292 292 291 292 298 305 310 312 312 314 318 324 329 333 334 333 332 327 321 315 313 313 315 313 306 294 289 296 301 300 299 300 302 300 297
261 262 264 264 264 263 263 262 259 260 264 269 272 274 276 276 276 275 274 274 275 276 274 268 262 263 274 285 293 299 304 309 312 315 322 328 328 317 301 294 293 292 292 300 311 318 319 318 319 322 325 330 335 336 335 333 330 326 321 318 317 317 312 297 283 291 304 308 311 321 331 334 331 327
252 254 256 257 257 258 256 251 251 262 272 274 274 274 274 274 273 272 271 272 273 270 263 255 253 262 275 285 292 299 307 312 313 315 323 333 337 331 315 297 289 287 291 301 312 321 324 325 327 328 329 332 336 336 335 334 333 331 327 323 321 318 307 280 267 283 294 296 312 357 4 1 355 350
245 248 251 252 254 256 252 245 250 269 282 282 278 275 272 271 270 269 268 269 266 258 249 246 251 262 274 282 290 299 308 313 315 317 324 332 340 342 334 313 291 285 290 299 308 315 320 326 330 331 332 334 337 336 336 337 338 335 330 327 325 321 305 263 252 259 257 256 295 324 341 350 350 347
Height
5765 5765 5765 5766 5766 5766 5766 5766 5766 5766 5766 5765 5765 5766 5766 5766 5766 5767 5767 5767 5767 5767 5768 5768 5768 5768 5768 5767 5767 5767 5767 5766 5766 5766 5766 5766 5766 5766 5765 5765 5765 5765 5765 5765 5765 5765 5764 5765 5765 5765 5765 5765 5765 5765 5764 5764 5764 5764 5764 5763 5763 5763 5763 5763 5763 5764 5764 5764 5765 5766 5766 5766 5767 5768
5762 5763 5763 5764 5764 5764 5764 5764 5764 5764 5764 5764 5764 5764 5765 5765 5765 5766 5766 5766 5766 5766 5766 5766 5766 5766 5766 5766 5766 5766 5765 5765 5765 5765 5764 5764 5764 5764 5764 5764 5764 5763 5763 5763 5763 5763 5763 5763 5763 5763 5763 5763 5763 5763 5763 5762 5762 5762 5762 5761 5761 5761 5760 5761 5761 5761 5761 5761 5761 5761 5762 5762 5763 5764
5760 5761 5761 5761 5762 5762 5762 5762 5762 5762 5762 5763 5763 5763 5764 5764 5764 5764 5764 5765 5764 5764 5764 5764 5764 5764 5764 5764 5764 5764 5764 5764 5763 5763 5763 5763 5762 5762 5762 5762 5762 5762 5762 5762 5762 5761 5761 5761 5761 5761 5761 5761 5761 5761 5760 5760 5760 5760 5760 5759 5759 5759 5758 5758 5758 5758 5758 5758 5758 5757 5758 5758 5759 5760
5759 5759 5759 5760 5760 5760 5761 5761 5761 5761 5761 5761 5761 5762 5762 5762 5762 5762 5762 5763 5763 5762 5762 5762 5762 5762 5762 5762 5762 5762 5762 5762 5761 5761 5761 5761 5761 5761 5761 5761 5760 5760 5760 5760 5760 5760 5759 5759 5759 5759 5759 5759 5758 5758 5758 5758 5758 5757 5757 5757 5757 5756 5756 5756 5756 5756 5755 5755 5755 5754 5754 5754 5754 5755
5757 5757 5758 5758 5759 5759 5759 5760 5760 5760 5760 5760 5760 5760 5760 5760 5760 5760 5760 5760 5760 5760 5760 5760 5760 5760 5760 5760 5760 5760 5760 5760 5759 5759 5759 5759 5759 5759 5759 5758 5758 5758 5758 5758 5758 5758 5757 5757 5757 5757 5756 5756 5756 5756 5755 5755 5755 5755 5754 5754 5754 5754 5753 5753 5753 5753 5753 5752 5752 5752 5751 5751 5751 5751
5755 5756 5756 5756 5757 5757 5757 5758 5758 5758 5758 5758 5758 5758 5758 5758 5758 5758 5758 5758 5758 5758 5758 5758 5758 5758 5758 5758 5758 5758 5758 5758 5757 5757 5757 5757 5757 5757 5756 5756 5756 5756 5756 5756 5756 5755 5755 5755 5754 5754 5754 5753 5753 5753 5753 5752 5752 5752 5751 5751 5751 5751 5750 5750 5750 5750 5749 5749 5749 5749 5748 5748 5748 5748
5754 5754 5754 5754 5755 5755 5755 5755 5755 5755 5756 5756 5756 5756 5756 5756 5756 5756 5755 5755 5755 5756 5756 5756 5756 5756 5756 5756 5756 5756 5756 5756 5756 5756 5755 5755 5755 5754 5754 5754 5754 5753 5753 5753 5753 5752 5752 5752 5752 5751 5751 5751 5750 5750 5750 5749 5749 5749 5748 5748 5748 5747 5747 5747 5747 5747 5746 5746 5746 5746 5745 5745 5745 5745
5751 5752 5752 5752 5752 5753 5753 5753 5753 5753 5754 5754 5754 5754 5754 5754 5753 5753 5753 5753 5753 5753 5753 5753 5753 5753 5753 5753 5753 5753 5753 5753 5753 5753 5753 5752 5752 5752 5751 5751 5751 5751 5750 5749 5749 5749 5749 5749 5749 5748 5748 5748 5747 5747 5747 5746 5746 5746 5745 5745 5745 5744 5744 5744 5744 5743 5743 5743 5743 5742 5742 5742 5742 5742
5749 5749 5749 5750 5750 5750 5750 5750 5751 5751 5751 5751 5751 5751 5751 5751 5751 5751 5751 5751 5751 5751 5751 5751 5751 5751 5750 5750 5750 5750 5750 5750 5750 5750 5750 5749 5749 5749 5749 5748 5748 5748 5747 5747 5746 5746 5746 5746 5745 5745 5745 5745 5744 5744 5743 5743 5743 5742 5742 5742 5741 5741 5741 5741 5740 5740 5740 5739 5739 5739 5739 5738 5738 5738
5746 5747 5747 5747 5747 5747 5747 5747 5748 5748 5748 5748 5749 5748 5748 5748 5748 5748 5748 5748 5748 5748 5748 5748 5748 5748 5747 5747 5746 5747 5747 5746 5746 5747 5746 5746 5746 5746 5746 5745 5745 5745 5745 5744 5743 5743 5743 5742 5742 5741 5741 5741 5741 5740 5740 5740 5740 5739 5738 5738 5738 5738 5737 5737 5737 5737 5736 5736 5735 5735 5735 5735 5734 5734
5744 5744 5744 5744 5744 5744 5744 5744 5744 5745 5745 5745 5745 5745 5745 5745 5745 5745 5744 5745 5744 5744 5744 5744 5744 5744 5744 5743 5743 5743 5744 5743 5742 5743 5743 5742 5741 5742 5742 5742 5741 5741 5741 5740 5740 5739 5739 5739 5738 5738 5737 5737 5737 5736 5736 5736 5736 5735 5734 5734 5734 5733 5733 5733 5732 5732 5732 5731 5731 5731 5730 5730 5730 5729
5741 5741 5741 5741 5741 5741 5741 5741 5741 5741 5741 5741 5741 5742 5742 5741 5741 5741 5741 5741 5740 5740 5740 5740 5740 5740 5740 5740 5740 5739 5740 5739 5738 5738 5738 5738 5737 5737 5737 5737 5736 5736 5737 5736 5735 5734 5734 5734 5734 5733 5733 5733 5733 5732 5731 5731 5731 5730 5729 5729 5729 5729 5728 5727 5727 5726 5726 5726 5725 5725 5725 5725 5725 5724
5738 5738 5738 5738 5737 5737 5737 5738 5738 5738 5738 5738 5739 5739 5738 5738 5738 5738 5738 5737 5737 5737 5737 5737 5737 5736 5736 5735 5735 5735 5735 5735 5734 5733 5733 5733 5732 5732 5731 5731 5730 5730 5730 5731 5730 5728 5727 5728 5728 5728 5727 5727 5727 5727 5726 5726 5725 5724 5723 5723 5723 5723 5723 5722 5721 5721 5720 5719 5719 5719 5719 5718 5718 5718
5735 5735 5735 5734 5733 5733 5733 5734 5734 5734 5734 5735 5735 5735 5735 5735 5734 5734 5734 5734 5733 5733 5733 5733 5733 5732 5732 5731 5730 5730 5730 5730 5729 5728 5728 5727 5727 5726 5726 5725 5724 5722 5722 5724 5724 5722 5720 5719 5720 5720 5720 5719 5719 5719 5719 5719 5719 5717 5717 5716 5716 5715 5715 5715 5714 5714 5713 5712 5712 5711 5711 5711 5711 5711
5732 5731 5730 5729 5729 5729 5729 5729 5729 5729 5730 5730 5730 5731 5731 5731 5731 5731 5730 5730 5730 5729 5729 5728 5728 5728 5728 5727 5726 5726 5725 5724 5724 5723 5722 5721 5721 5720 5720 5719 5718 5716 5715 5715 5716 5715 5713 5711 5711 5712 5712 5711 5711 5711 5711 5711 5710 5709 5709 5708 5708 5707 5707 5706 5706 5705 5705 5704 5704 5703 5703 5702 5702 5703
5730 5729 5727 5725 5725 5725 5725 5725 5724 5724 5725 5725 5726 5726 5727 5727 5727 5726 5726 5726 5725 5725 5725 5724 5723 5723 5723 5722 5722 5721 5720 5719 5719 5718 5717 5716 5715 5715 5714 5713 5713 5711 5709 5708 5709 5709 5707 5704 5704 5704 5703 5703 5702 5702 5702 5702 5701 5700 5700 5699 5699 5698 5698 5698 5697 5696 5696 5695 5695 5694 5694 5694 5694 5694
5725 5725 5723 5721 5721 5721 5721 5720 5719 5719 5720 5720 5721 5722 5722 5722 5722 5722 5722 5721 5721 5720 5720 5720 5719 5718 5718 5717 5716 5716 5715 5714 5713 5712 5712 5711 5710 5709 5708 5708 5707 5705 5703 5702 5702 5702 5700 5698 5697 5696 5695 5695 5694 5693 5693 5693 5692 5691 5690 5689 5689 5688 5688 5688 5688 5687 5687 5686 5686 5685 5685 5685 5685 5685
5720 5720 5719 5717 5717 5717 5717 5715 5714 5714 5715 5716 5716 5717 5717 5717 5717 5717 5717 5717 5716 5716 5715 5715 5714 5714 5713 5712 5711 5710 5709 5709 5708 5707 5706 5705 5704 5704 5703 5701 5700 5698 5696 5695 5695 5695 5694 5691 5690 5689 5687 5687 5686 5685 5684 5683 5683 5683 5682 5680 5679 5678 5678 5678 5678 5677 5677 5677 5676 5676 5676 5676 5676 5676
5715 5715 5714 5713 5713 5713 5712 5710 5709 5710 5710 5711 5712 5712 5712 5713 5713 5713 5713 5712 5712 5711 5711 5710 5709 5709 5708 5707 5706 5705 5704 5703 5702 5701 5700 5699 5698 5697 5696 5694 5693 5691 5689 5687 5686 5687 5687 5684 5682 5681 5680 5679 5678 5676 5675 5674 5673 5673 5672 5671 5669 5668 5667 5666 5666 5667 5667 5666 5666 5666 5666 5666 5666 5666
5709 5710 5710 5709 5708 5708 5706 5704 5704 5705 5705 5706 5707 5707 5707 5708 5708 5708 5708 5707 5707 5706 5706 5705 5704 5703 5702 5701 5700 5699 5698 5697 5696 5695 5694 5692 5691 5690 5689 5688 5686 5684 5682 5680 5678 5679 5679 5676 5675 5674 5672 5671 5670 5668 5666 5665 5664 5663 5662 5660 5659 5658 5657 5656 5655 5655 5655 5655 5655 5655 5655 5656 5656 5657
5703 5704 5705 5704 5703 5703 5702 5700 5699 5700 5700 5701 5702 5702 5702 5703 5703 5703 5703 5702 5702 5701 5700 5700 5698 5698 5697 5696 5695 5693 5692 5691 5689 5688 5687 5685 5684 5683 5682 5681 5679 5677 5675 5672 5670 5670 5670 5668 5666 5666 5664 5662 5661 5659 5658 5656 5655 5654 5652 5650 5649 5648 5647 5646 5645 5644 5643 5643 5643 5643 5644 5644 5644 5645
5698 5699 5699 5699 5698 5697 5697 5696 5695 5695 5696 5696 5696 5697 5697 5698 5698 5698 5697 5696 5696 5696 5695 5694 5693 5692 5691 5690 5689 5688 5686 5685 5683 5682 5681 5679 5677 5676 5674 5673 5671 5670 5667 5664 5662 5662 5661 5659 5657 5656 5655 5654 5652 5650 5649 5647 5645 5644 5643 5642 5640 5639 5637 5636 5635 5633 5632 5632 5631 5631 5632 5632 5632 5633
5691 5691 5692 5693 5692 5691 5691 5691 5690 5690 5691 5691 5691 5691 5691 5692 5693 5693 5692 5690 5690 5691 5689 5688 5688 5687 5686 5685 5683 5682 5680 5678 5676 5675 5673 5672 5670 5668 5667 5665 5663 5662 5659 5656 5654 5654 5652 5651 5649 5646 5645 5646 5645 5642 5640 5638 5636 5634 5633 5632 5631 5630 5628 5627 5626 5624 5622 5622 5620 5620 5620 5621 5621 5622
5684 5685 5686 5686 5686 5686 5686 5686 5685 5685 5686 5686 5686 5686 5686 5686 5686 5687 5687 5685 5685 5685 5684 5683 5682 5681 5680 5679 5678 5676 5675 5673 5672 5669 5667 5665 5663 5661 5659 5657 5655 5654 5651 5648 5647 5646 5644 5642 5641 5638 5636 5635 5635 5634 5631 5629 5627 5624 5623 5621 5620 5619 5618 5617 5616 5615 5614 5613 5611 5610 5609 5610 5611 5612
5679 5679 5680 5680 5681 5681 5681 5681 5681 5681 5680 5681 5680 5680 5680 5680 5680 5681 5681 5681 5680 5679 5678 5677 5677 5675 5674 5673 5671 5669 5668 5667 5665 5664 5662 5660 5657 5655 5652 5650 5649 5647 5644 5640 5639 5638 5636 5634 5632 5630 5628 5626 5626 5624 5622 5620 5617 5615 5613 5611 5609 5608 5606 5606 5605 5604 5604 5603 5603 5601 5600 5599 5600 5601
5673 5673 5674 5674 5675 5676 5676 5676 5676 5676 5676 5676 5675 5675 5675 5675 5675 5674 5675 5675 5674 5673 5672 5671 5670 5669 5667 5665 5663 5662 5660 5659 5657 5656 5654 5652 5650 5648 5645 5643 5641 5640 5637 5634 5631 5629 5628 5626 5623 5621 5620 5619 5617 5615 5613 5611 5608 5605 5603 5601 5600 5598 5596 5595 5594 5594 5593 5593 5592 5592 5591 5590 5589 5590
5667 5667 5667 5668 5669 5670 5670 5671 5671 5671 5671 5671 5670 5670 5670 5670 5670 5669 5669 5669 5668 5667 5666 5665 5664 5662 5660 5658 5657 5655 5653 5652 5650 5648 5646 5644 5643 5641 5638 5636 5633 5631 5628 5626 5623 5620 5619 5617 5615 5613 5611 5610 5608 5606 5604 5602 5599 5596 5594 5592 5590 5589 5587 5585 5584 5583 5583 5582 5581 5581 5580 5579 5579 5579
5661 5660 5661 5662 5663 5663 5664 5665 5665 5665 5666 5665 5665 5665 5665 5665 5664 5664 5663 5663 5662 5661 5660 5659 5657 5656 5654 5652 5650 5648 5646 5645 5643 5640 5639 5637 5635 5633 5631 5629 5626 5623 5620 5618 5615 5613 5611 5609 5607 5605 5603 5601 5599 5597 5595 5593 5590 5587 5585 5584 5582 5579 5577 5575 5574 5573 5572 5571 5571 5570 5569 5569 5568 5568
5654 5654 5655 5656 5657 5657 5658 5659 5659 5659 5660 5660 5660 5660 5660 5659 5659 5658 5658 5657 5656 5655 5654 5652 5651 5649 5647 5645 5644 5642 5640 5637 5635 5633 5631 5629 5627 5625 5623 5621 5619 5616 5613 5611 5609 5607 5605 5603 5601 5598 5596 5593 5591 5588 5586 5585 5582 5579 5577 5576 5574 5571 5569 5567 5566 5564 5563 5562 5561 5561 5559 5558 5558 5558
5647 5648 5649 5649 5650 5651 5652 5652 5653 5653 5654 5654 5654 5654 5654 5654 5653 5653 5652 5651 5650 5649 5647 5646 5644 5643 5641 5638 5636 5634 5632 5630 5628 5626 5624 5622 5620 5618 5616 5614 5612 5609 5606 5604 5602 5600 5598 5596 5594 5591 5589 5586 5583 5581 5579 5577 5575 5572 5570 5568 5567 5565 5563 5561 5559 5557 5555 5555 5554 5553 5551 5550 5549 5549
5640 5641 5642 5643 5644 5645 5646 5647 5647 5647 5648 5648 5648 5649 5648 5648 5647 5647 5646 5645 5644 5643 5641 5639 5638 5636 5634 5631 5629 5627 5625 5622 5620 5618 5617 5615 5613 5611 5609 5607 5605 5603 5600 5598 5596 5594 5592 5589 5587 5584 5581 5578 5576 5574 5572 5570 5568 5567 5565 5563 5561 5559 5557 5555 5553 5551 5549 5548 5547 5546 5544 5543 5542 5542
5634 5635 5636 5637 5638 5639 5640 5641 5641 5642 5642 5642 5643 5643 5642 5642 5641 5641 5640 5639 5638 5637 5635 5633 5631 5629 5626 5624 5622 5620 5617 5615 5613 5611 5610 5608 5606 5604 5603 5601 5599 5597 5595 5592 5589 5587 5585 5583 5580 5577 5575 5573 5571 5569 5567 5565 5563 5561 5560 5558 5556 5554 5551 5549 5547 5545 5543 5542 5540 5539 5538 5537 5536 5536
5627 5628 5629 5631 5632 5633 5634 5634 5635 5636 5636 5636 5636 5636 5635 5636 5636 5635 5634 5633 5632 5631 5629 5626 5623 5621 5619 5617 5615 5613 5611 5609 5607 5605 5604 5602 5600 5599 5597 5595 5593 5591 5589 5586 5583 5581 5579 5576 5574 5572 5570 5568 5566 5564 5562 5560 5558 5556 5554 5552 5551 5548 5546 5543 5541 5539 5537 5536 5534 5533 5532 5531 5531 5530
5620 5621 5622 5624 5625 5626 5627 5628 5629 5630 5630 5630 5630 5630 5629 5629 5630 5629 5628 5627 5625 5623 5621 5619 5616 5614 5612 5610 5608 5607 5605 5604 5602 5600 5599 5597 5595 5593 5591 5589 5587 5585 5583 5580 5577 5575 5573 5571 5569 5568 5566 5564 5562 5559 5557 5556 5554 5551 5549 5547 5544 5542 5539 5537 5535 5533 5531 5530 5529 5527 5526 5525 5524 5524
5613 5614 5615 5617 5618 5620 5621 5622 5623 5623 5623 5624 5625 5625 5624 5624 5624 5623 5621 5619 5617 5615 5614 5612 5609 5608 5606 5605 5603 5602 5600 5599 5597 5596 5594 5592 5590 5588 5586 5584 5582 5579 5576 5574 5571 5570 5568 5567 5566 5564 5562 5560 5558 5555 5552 5551 5549 5547 5544 5541 5538 5535 5533 5531 5529 5527 5525 5524 5523 5522 5520 5519 5519 5519
5606 5607 5609 5610 5611 5613 5614 5616 5616 5617 5618 5618 5618 5619 5619 5619 5618 5616 5614 5612 5610 5609 5607 5606 5604 5602 5601 5600 5599 5597 5596 5595 5593 5592 5590 5588 5586 5584 5581 5578 5576 5573 5570 5568 5567 5566 5565 5564 5562 5560 5559 5557 5554 5551 5548 5545 5543 5540 5538 5536 5532 5529 5527 5525 5523 5521 5520 5518 5517 5516 5515 5514 5513 5513
5599 5601 5602 5603 5605 5607 5609 5610 5611 5611 5612 5612 5613 5613 5613 5612 5611 5609 5607 5605 5604 5603 5602 5601 5599 5598 5597 5596 5595 5594 5593 5591 5590 5588 5586 5584 5581 5579 5576 5572 5569 5567 5565 5564 5563 5563 5562 5560 5558 5557 5555 5553 5551 5548 5545 5541 5538 5535 5532 5530 5527 5524 5522 5520 5518 5516 5514 5513 5512 5511 5510 5510 5509 5508
5594 5595 5596 5598 5600 5602 5603 5605 5605 5606 5607 5607 5607 5607 5606 5605 5604 5603 5601 5600 5599 5598 5597 5596 5595 5594 5594 5593 5592 5591 5589 5588 5587 5584 5582 5580 5577 5573 5570 5567 5564 5563 5562 5561 5560 5560 5559 5557 5555 5553 5551 5549 5547 5544 5541 5537 5534 5530 5527 5525 5522 5520 5518 5516 5514 5512 5510 5508 5507 5506 5506 5506 5505 5505
5588 5590 5591 5593 5595 5597 5598 5600 5600 5601 5602 5602 5601 5601 5600 5599 5598 5597 5596 5595 5594 5594 5593 5592 5591 5591 5590 5590 5589 5588 5587 5585 5584 5581 5578 5575 5572 5568 5565 5563 5561 5560 5559 5558 5558 5557 5555 5554 5552 5550 5548 5545 5543 5540 5537 5534 5530 5527 5523 5520 5518 5516 5514 5512 5510 5508 5506 5504 5504 5503 5503 5502 5502 5501
5582 5584 5585 5587 5590 5592 5593 5594 5595 5596 5596 5596 5596 5596 5595 5594 5593 5592 5591 5591 5590 5590 5589 5589 5588 5588 5587 5587 5586 5586 5584 5583 5580 5578 5575 5571 5567 5564 5562 5560 5559 5558 5557 5556 5555 5553 5552 5551 5549 5547 5545 5542 5539 5536 5533 5530 5527 5524 5520 5517 5514 5512 5511 5508 5506 5504 5503 5502 5501 5501 5500 5499 5499 5499
5576 5578 5580 5582 5584 5586 5588 5589 5590 5590 5591 5591 5591 5591 5590 5589 5588 5587 5587 5587 5586 5586 5586 5586 5585 5585 5585 5585 5584 5583 5582 5580 5578 5575 5571 5567 5563 5560 5559 5557 5556 5555 5554 5553 5552 5551 5549 5548 5546 5544 5542 5539 5536 5533 5530 5527 5523 5520 5517 5515 5512 5510 5508 5505 5503 5502 5501 5500 5499 5498 5498 5497 5497 5497
5570 5573 5575 5577 5579 5581 5582 5583 5584 5585 5586 5586 5586 5586 5586 5585 5584 5584 5583 5583 5583 5583 5583 5583 5583 5583 5583 5582 5582 5581 5579 5577 5575 5572 5569 5565 5561 5558 5556 5555 5554 5553 5552 5551 5549 5548 5546 5545 5543 5541 5539 5536 5533 5530 5527 5524 5520 5517 5514 5512 5509 5507 5505 5503 5501 5500 5500 5499 5498 5497 5496 5496 5496 5496
5566 5569 5571 5572 5574 5576 5577 5578 5580 5581 5582 5582 5581 5581 5581 5581 5580 5580 5580 5580 5580 5580 5580 5580 5580 5580 5580 5580 5579 5578 5577 5575 5573 5570 5567 5563 5559 5556 5554 5552 5551 5550 5549 5548 5547 5546 5544 5542 5541 5539 5536 5534 5531 5527 5524 5521 5518 5514 5511 5509 5506 5504 5502 5500 5499 5499 5498 5498 5497 5497 5496 5496 5496 5495
5562 5564 5566 5568 5570 5571 5572 5574 5576 5577 5577 5577 5577 5577 5577 5577 5576 5576 5576 5576 5576 5577 5577 5577 5578 5578 5578 5577 5577 5575 5574 5572 5570 5568 5566 5562 5558 5554 5551 5550 5549 5548 5547 5546 5544 5543 5542 5540 5538 5536 5534 5531 5528 5526 5523 5519 5515 5512 5509 5506 5503 5501 5499 5498 5498 5498 5498 5498 5497 5497 5497 5496 5496 5496
5557 5559 5561 5563 5565 5566 5568 5570 5571 5571 5572 5573 5573 5573 5573 5573 5573 5573 5573 5573 5573 5574 5574 5575 5575 5575 5575 5575 5574 5573 5572 5570 5568 5566 5564 5561 5557 5553 5550 5548 5546 5545 5545 5543 5542 5541 5539 5538 5536 5534 5532 5529 5527 5524 5521 5517 5514 5510 5507 5504 5501 5499 5497 5497 5498 5498 5498 5498 5497 5497 5497 5497 5496 5496